UPS210 KSDF-KBOS

Flight info

Callsign UPS210
Flight time N/A
Altitude 37000
Route SPILR1 BNGIN ROD KLYNE Q29 JHW Q82 PONCT JFUND2
Aircraft MD11/H-SDE1E2E3FGHIJ2J3J4J5M1RWXY/LB1D1

Departure

Time 2026-05-06 14:35
Airport Louisville Muhammad Ali International Airport (KSDF)

Arrival

Time N/A
Airport Boston Logan International Airport (KBOS)
Time Latitude Longitude Altitude Speed Heading
2026-05-06 13:59 38.17267 -85.73784 487 ft 0 kts 201°
2026-05-06 14:22 38.17286 -85.73774 496 ft 4 kts 213°
2026-05-06 14:23 38.17305 -85.73755 485 ft 4 kts 241°
2026-05-06 14:23 38.17312 -85.73729 496 ft 4 kts 283°
2026-05-06 14:23 38.17305 -85.73702 496 ft 4 kts 291°
2026-05-06 14:23 38.17300 -85.73687 485 ft 0 kts 291°
2026-05-06 14:29 38.17303 -85.73696 488 ft 2 kts 291°
2026-05-06 14:29 38.17316 -85.73738 484 ft 8 kts 291°
2026-05-06 14:29 38.17342 -85.73827 487 ft 13 kts 291°
2026-05-06 14:30 38.17376 -85.73938 489 ft 15 kts 291°
2026-05-06 14:30 38.17418 -85.74075 491 ft 18 kts 291°
2026-05-06 14:30 38.17426 -85.74202 493 ft 14 kts 260°
2026-05-06 14:30 38.17407 -85.74272 489 ft 6 kts 226°
2026-05-06 14:31 38.17363 -85.74274 488 ft 11 kts 166°
2026-05-06 14:31 38.17240 -85.74233 490 ft 23 kts 165°
2026-05-06 14:31 38.17086 -85.74183 488 ft 22 kts 166°
2026-05-06 14:31 38.16946 -85.74137 490 ft 20 kts 165°
2026-05-06 14:32 38.16801 -85.74087 487 ft 21 kts 165°
2026-05-06 14:32 38.16665 -85.74042 488 ft 19 kts 165°
2026-05-06 14:32 38.16529 -85.73999 489 ft 22 kts 166°
2026-05-06 14:32 38.16361 -85.73944 489 ft 26 kts 165°
2026-05-06 14:33 38.16188 -85.73887 488 ft 25 kts 164°
2026-05-06 14:33 38.16040 -85.73835 486 ft 16 kts 167°
2026-05-06 14:33 38.15938 -85.73803 486 ft 12 kts 166°
2026-05-06 14:33 38.15889 -85.73789 483 ft 4 kts 169°
2026-05-06 14:34 38.15856 -85.73807 489 ft 6 kts 222°
2026-05-06 14:34 38.15838 -85.73865 489 ft 9 kts 253°
2026-05-06 14:34 38.15852 -85.73928 487 ft 6 kts 316°
2026-05-06 14:34 38.15898 -85.73952 481 ft 12 kts 343°
2026-05-06 14:35 38.16171 -85.74043 485 ft 82 kts 346°
2026-05-06 14:35 38.16995 -85.74315 485 ft 160 kts 345°
2026-05-06 14:35 38.18218 -85.74704 824 ft 188 kts 345°
2026-05-06 14:35 38.19467 -85.75093 1879 ft 184 kts 343°
2026-05-06 14:36 38.20743 -85.75457 2832 ft 189 kts 344°
2026-05-06 14:36 38.22018 -85.75890 3709 ft 189 kts 327°
2026-05-06 14:36 38.23110 -85.76774 4653 ft 185 kts 317°
2026-05-06 14:36 38.24186 -85.77734 5422 ft 202 kts 317°
2026-05-06 14:37 38.25453 -85.78848 5597 ft 239 kts 319°
2026-05-06 14:37 38.26940 -85.80093 5921 ft 266 kts 321°
2026-05-06 14:37 38.28577 -85.81258 6877 ft 272 kts 326°
2026-05-06 14:37 38.30283 -85.82329 7892 ft 274 kts 327°
2026-05-06 14:38 38.32009 -85.83370 8912 ft 275 kts 327°
2026-05-06 14:38 38.33731 -85.84393 9875 ft 277 kts 326°
2026-05-06 14:38 38.35526 -85.85463 10315 ft 299 kts 327°
2026-05-06 14:38 38.37513 -85.86659 10448 ft 331 kts 327°
2026-05-06 14:39 38.39675 -85.87944 10891 ft 349 kts 328°
2026-05-06 14:39 38.41901 -85.89243 11712 ft 357 kts 328°
2026-05-06 14:39 38.44165 -85.90559 12081 ft 358 kts 328°
2026-05-06 14:39 38.46410 -85.91863 12458 ft 358 kts 328°
2026-05-06 14:40 38.48693 -85.93195 12851 ft 361 kts 328°
2026-05-06 14:40 38.50978 -85.94532 12987 ft 362 kts 328°